Ceduna, Australia

4:59 AM ACDT on November 24, 2017 (GMT +1030)
Ceduna

Weather History for YPCD - December, 2013

Change the Weather History Date:

Tuesday, December 31, 2013

  Actual Average Record
Temperature  
Mean Temperature 88 °F -  
Max Temperature 114 °F 83 °F - ()
Min Temperature 62 °F 59 °F - ()
Cooling Degree Days 23    
Growing Degree Days 38 (Base 50)    
Moisture  
Dew Point 21 °F    
Average Humidity 14    
Maximum Humidity 98    
Minimum Humidity 4    
Precipitation  
Precipitation 0.00 in 0.01 in - ()
Sea Level Pressure  
Sea Level Pressure 29.74 in    
Wind  
Wind Speed 11 mph ()    
Max Wind Speed 23 mph    
Max Gust Speed -    
Visibility 19.0 miles    
Events      
T = Trace of Precipitation, MM = Missing Value Source: Averaged Metar Reports

Daily Weather History Graph

Daily Weather History Graph

Search for Another Location

Airport or City:

Trip Planner

Search our weather history database for the weather conditions in past years. The results will help you decide how hot, cold, wet, or windy it might be!

Date:

Astronomy

Dec. 31, 2013 Rise Set
Actual Time 6:31 AM ACDT 8:44 PM ACDT
Civil Twilight 6:03 AM ACDT 9:12 PM ACDT
Nautical Twilight 5:28 AM ACDT 9:47 PM ACDT
Astronomical Twilight 4:51 AM ACDT 10:24 PM ACDT
Moon 5:05 AM ACDT (12/31) 7:21 PM ACDT (12/31)
Length of Visible Light 15h 09m
Length of Day
14h 13m
Waning Crescent, 3% of the Moon is Illuminated
Dec 31
Waning Crescent
Jan 1
New
Jan 8
First Quarter
Jan 16
Full
Jan 24
Last Quarter

Hourly Weather History & Observations

Time (ACDT) Temp. Dew Point Humidity Pressure Visibility Wind Dir Wind Speed Gust Speed Precip Events Conditions
12:00 AM 70 °F 47 °F 33% 29.90 in - SE 5.8 mph - -   Overcast
12:30 AM 68 °F 46 °F 34% 29.88 in - SE 6.9 mph - -  
1:30 AM 69 °F 37 °F 20% 29.84 in - ESE 11.5 mph - -  
2:30 AM 67 °F 38 °F 23% 29.82 in - ESE 6.9 mph - -  
3:00 AM 64 °F 36 °F 24% 29.81 in - ESE 8.1 mph - -  
3:30 AM 65 °F 37 °F 24% 29.81 in - ENE 8.1 mph - -  
4:30 AM 66 °F 36 °F 22% 29.79 in - NE 5.8 mph - -  
5:30 AM 71 °F 27 °F 10% 29.79 in - ENE 13.8 mph - -  
6:00 AM 73 °F 21 °F 6% 29.81 in 19 mi ENE 12.7 mph - -   Partly Cloudy
6:30 AM 72 °F 20 °F 6% 29.81 in - ENE 13.8 mph - -  
7:30 AM 80 °F 6 °F 4% 29.82 in - NE 15.0 mph - -  
8:30 AM 84 °F -2 °F 4% 29.83 in - NE 18.4 mph - -  
9:00 AM 88 °F -3 °F 4% 29.82 in 19 mi NE 19.6 mph - -   Partly Cloudy
9:30 AM 90 °F -8 °F 4% 29.81 in - NNE 20.7 mph - -  
10:30 AM 95 °F -10 °F 4% 29.81 in - NE 21.9 mph - -  
11:30 AM 101 °F -14 °F 4% 29.78 in - NNE 19.6 mph - -  
12:00 PM 105 °F -18 °F 4% 29.77 in 19 mi North 19.6 mph - -   Partly Cloudy
12:30 PM 107 °F -29 °F 4% 29.75 in - North 23.0 mph - -  
1:30 PM 105 °F -11 °F 4% 29.73 in - North 23.0 mph - -  
2:30 PM 108 °F -3 °F 4% 29.70 in - North 17.3 mph - -  
3:00 PM 110 °F 10 °F 4% 29.69 in 19 mi NNW 18.4 mph - -   Partly Cloudy
3:30 PM 110 °F 11 °F 4% 29.68 in - North 19.6 mph - -  
4:30 PM 112 °F 16 °F 4% 29.63 in - NNE 13.8 mph - -  
5:30 PM 111 °F 33 °F 4% 29.61 in - North 15.0 mph - -  
6:00 PM 114 °F 114 °F 98% 29.59 in - NNE 16.1 mph - -  
6:30 PM 113 °F 29 °F 4% 29.58 in - NNW 16.1 mph - -  
7:30 PM 101 °F 45 °F 8% 29.59 in - West 9.2 mph - -  
8:30 PM 104 °F 43 °F 7% 29.62 in - North 16.1 mph - -  
9:00 PM 94 °F 61 °F 24% 29.65 in - WNW 6.9 mph - -   Overcast
9:30 PM 100 °F 51 °F 12% 29.65 in - North 11.5 mph - -  
10:30 PM 95 °F 51 °F 14% 29.62 in - ENE 12.7 mph - -  
11:30 PM 95 °F 50 °F 13% 29.60 in - ENE 11.5 mph - -